Terug naar catalogus

CZ-2F DEB

ActiefVLEO
NORAD 53364·DEBRIS·🇨🇳 China

Gelanceerd Aug 4, 2022 vanaf Jiuquan Satellite Launch Center

Loading…

Volgende Passages (komende 24 uur)

TLE

VersSource: Space-Track

Epoch: Sep 14, 2026, 07:26 UTC

1 53364U 22093H   26257.30984992  .00006075  00000-0  24219-3 0  9992
2 53364  50.0463 107.8892 0070161  83.2124 277.6809 15.24320548227027

Volg CZ-2F DEB in realtime met AllMySat

Download on the App Store